Torna al catalogo

STARLINK-31737

AttivoComunicazioniVLEO
NORAD 59537·PAYLOAD·🇺🇸 United States

Lanciato Apr 18, 2024 da Cape Canaveral Space Force Station

Loading…

Prossimi Passaggi (prossime 24 ore)

TLE

AggiornatoSource: CelesTrak SupGP

Epoca: Sep 14, 2026, 20:39 UTC

1 59537C 24074D   26257.86090278  .00017326  00000+0  62746-3 0  2571
2 59537  43.0032 355.1154 0001459 277.5126 183.4281 15.27574228    17

Traccia STARLINK-31737 in tempo reale con AllMySat

Download on the App Store